Zurück zum Katalog

CZ-10B R/B

AktivLEO
NORAD 69974·ROCKET BODY·🇨🇳 China

Gestartet Jul 10, 2026 von Wenchang Space Launch Site

Loading…

Nächste Überflüge (nächste 24 Stunden)

TLE

AktuellSource: Space-Track

Epoche: Sep 14, 2026, 13:13 UTC

1 69974U 26158C   26257.55107508  .00000048  00000-0  42536-4 0  9996
2 69974  49.9634   2.8100 0197509  70.2508 291.9606 14.64341440  9717

Verfolge CZ-10B R/B in Echtzeit mit AllMySat

Download on the App Store